This demonstration page uses our WeatherBlox Daily Observations layout. Learn more.

Left ArrowRight Arrow

41.86663, -103.66717

Hourly Observations for October 24, 2015

Temp ( °F °C ) Dew Point ( °F °C ) Humidity (%) Winds ( mph kmh ) Pressure ( in mb ) Visibility ( mi km ) Precip ( " mm )
12:53 am 00:53 Clear 33 0.6 29 -1.7 85 85 N 7 11 30.17 1022 10 16 N/A
1:53 am 01:53 Clear 32 undefined 29 -1.7 88 88 WNW 3 6 30.17 1022 10 16 N/A
2:53 am 02:53 Clear 31 -0.6 27 -2.8 85 85 N 3 6 30.17 1022 10 16 N/A
3:53 am 03:53 Clear 31 -0.6 27 -2.8 85 85 N N/A 30.16 1022 10 16 N/A
4:53 am 04:53 Clear 29 -1.7 26 -3.3 89 89 ENE 5 7 30.17 1022 10 16 N/A
5:53 am 05:53 Clear 32 undefined 28 -2.2 85 85 E 7 11 30.16 1022 10 16 N/A
6:53 am 06:53 Clear 31 -0.6 27 -2.8 85 85 N N/A 30.19 1022 10 16 N/A
7:53 am 07:53 Sunny 32 undefined 28 -2.2 85 85 NE 3 6 30.21 1023 10 16 N/A
8:53 am 08:53 Sunny 40 4.4 33 0.6 77 77 N N/A 30.21 1023 10 16 N/A
9:53 am 09:53 Sunny 46 7.8 35 1.7 66 66 VRB 3 6 30.21 1023 10 16 N/A
10:53 am 10:53 Sunny 52 11.1 35 1.7 53 53 WNW 10 17 30.20 1023 10 16 N/A
11:53 am 11:53 Sunny 57 13.9 35 1.7 44 44 WNW 14 22 30.19 1022 10 16 N/A
12:53 pm 12:53 Sunny 61 16.1 35 1.7 38 38 WNW 8 13 30.15 1021 10 16 N/A
1:53 pm 13:53 Sunny 64 17.8 33 0.6 32 32 W 9 15 30.12 1020 10 16 N/A
2:53 pm 14:53 Sunny 66 18.9 21 -6.1 18 18 WNW 17 28 30.10 1019 10 16 N/A
3:53 pm 15:53 Sunny 66 18.9 23 -5 19 19 NW 9 15 30.11 1020 10 16 N/A
4:53 pm 16:53 Sunny 65 18.3 23 -5 20 20 WNW 6 9 30.13 1020 10 16 N/A
5:53 pm 17:53 Sunny 60 15.6 26 -3.3 27 27 WSW 3 6 30.14 1021 10 16 N/A
6:53 pm 18:53 Clear 47 8.3 31 -0.6 54 54 E 6 9 30.20 1023 10 16 N/A
7:53 pm 19:53 Clear 47 8.3 33 0.6 59 59 ENE 8 13 30.21 1023 10 16 N/A
8:53 pm 20:53 Clear 46 7.8 32 undefined 58 58 SE 6 9 30.21 1023 10 16 N/A
9:53 pm 21:53 Clear 43 6.1 33 0.6 68 68 E 8 13 30.20 1023 10 16 N/A
10:53 pm 22:53 Clear 39 3.9 32 undefined 76 76 E 6 9 30.20 1023 10 16 N/A
11:53 pm 23:53 Clear 39 3.9 32 undefined 76 76 E 8 13 30.18 1022 10 16 N/A

Powered by AerisWeather